N5SRF Weather Reports


Display with metric or nautical units.
time (UTC)temp
F
wind
direction
speed
MPH
gust
MPH
rain 1hr
in
rain 24hr
in
rain mn
in
humidity
%
barometer
mb
20260903084057 77 155 0.0 0.0 0.00 0.00 0.00 99 1017.6
20260903083552 77 155 0.0 0.0 0.00 0.00 0.00 99 1017.5
20260903083052 77 155 0.0 0.0 0.00 0.00 0.00 99 1017.4
20260903082546 77 155 0.0 0.0 0.00 0.00 0.00 99 1017.5
20260903082042 77 155 0.0 0.0 0.00 0.00 0.00 99 1017.5
20260903081537 77 154 0.0 0.0 0.00 0.00 0.00 99 1017.5
20260903081032 77 155 0.0 0.0 0.00 0.00 0.00 99 1017.3
20260903080529 77 154 0.0 0.0 0.00 0.00 0.00 99 1017.5
20260903080026 77 153 1.0 1.0 0.00 0.00 0.00 99 1017.3
20260903075520 77 161 0.0 0.0 0.00 0.00 0.00 99 1017.6
20260903075015 77 130 1.0 1.0 0.00 0.00 0.00 99 1017.3
20260903074514 77 186 0.0 0.0 0.00 0.00 0.00 99 1017.3
20260903074009 77 172 0.0 0.0 0.00 0.00 0.00 99 1017.4
20260903073504 77 169 0.0 0.0 0.00 0.00 0.00 99 1017.6
20260903073000 77 158 1.0 1.0 0.00 0.00 0.00 99 1017.3
20260903072455 77 164 2.0 2.0 0.00 0.00 0.00 99 1017.4
20260903071952 77 156 1.0 1.0 0.00 0.00 0.00 99 1017.3
20260903071449 77 162 1.0 1.0 0.00 0.00 0.00 99 1017.4
20260903070944 77 182 0.0 1.0 0.00 0.00 0.00 99 1017.2
20260903070444 77 78 2.0 3.0 0.00 0.00 0.00 99 1017.3
20260903065943 77 167 0.0 0.0 0.00 0.00 0.00 99 1017.3
20260903065438 77 124 3.0 5.0 0.00 0.00 0.00 99 1017.6
20260903064937 77 202 2.0 2.0 0.00 0.00 0.00 99 1017.7
20260903064432 77 154 3.0 5.0 0.00 0.00 0.00 99 1017.6
20260903063923 77 175 2.0 3.0 0.00 0.00 0.00 99 1017.6
20260903063418 77 173 4.0 6.0 0.00 0.00 0.00 99 1017.5
20260903062913 77 171 1.0 2.0 0.00 0.00 0.00 99 1017.6
20260903062408 77 136 1.0 2.0 0.00 0.00 0.00 99 1017.5
20260903061904 77 84 2.0 2.0 0.00 0.00 0.00 99 1017.6
20260903061403 77 122 1.0 1.0 0.00 0.00 0.00 99 1017.7
20260903060859 77 173 2.0 2.0 0.00 0.00 0.00 99 1018.1
20260903060358 77 181 3.0 3.0 0.00 0.00 0.00 99 1018.0
20260903055856 77 161 2.0 2.0 0.00 2.59 2.59 99 1018.2
20260903055354 77 180 2.0 3.0 0.00 2.59 2.59 99 1018.2
20260903054849 77 161 3.0 3.0 0.00 2.59 2.59 99 1018.1
20260903054344 77 99 1.0 2.0 0.00 2.59 2.59 99 1018.2
20260903053841 76 187 1.0 1.0 0.00 2.59 2.59 99 1018.3
20260903053335 76 164 2.0 2.0 0.00 2.59 2.59 99 1018.3
20260903052832 76 193 0.0 1.0 0.00 2.59 2.59 99 1018.4
20260903052327 76 184 0.0 0.0 0.00 2.59 2.59 99 1018.4
20260903051823 76 177 0.0 1.0 0.00 2.59 2.59 99 1018.2
20260903051318 76 177 0.0 1.0 0.00 2.59 2.59 99 1018.4
20260903050813 76 151 1.0 1.0 0.00 2.59 2.59 99 1018.3
20260903050312 75 165 1.0 1.0 0.00 2.59 2.59 99 1018.2
20260903045807 75 157 2.0 2.0 0.00 2.59 2.59 99 1018.3
20260903045306 75 129 1.0 2.0 0.00 2.59 2.59 99 1018.1
20260903044759 75 167 1.0 2.0 0.00 2.59 2.59 99 1018.2
20260903044254 75 150 3.0 5.0 0.00 2.59 2.59 99 1018.0
20260903043751 75 158 1.0 1.0 0.00 2.59 2.59 99 1018.1
20260903043250 75 132 1.0 2.0 0.00 2.59 2.59 99 1018.2
20260903042749 74 174 2.0 2.0 0.00 2.59 2.59 99 1018.2
20260903042244 74 156 1.0 1.0 0.00 2.59 2.59 99 1018.2
20260903041741 74 159 1.0 1.0 0.00 2.59 2.59 99 1018.2
20260903041237 74 104 1.0 1.0 0.00 2.59 2.59 99 1018.3
20260903040731 74 133 2.0 3.0 0.00 2.59 2.59 99 1018.1
20260903040226 74 157 3.0 3.0 0.00 2.59 2.59 99 1018.0
20260903035722 74 170 2.0 2.0 0.00 2.59 2.59 99 1018.2
20260903035218 74 188 5.0 6.0 0.00 2.59 2.59 99 1018.2
20260903034717 74 138 3.0 3.0 0.00 2.59 2.59 99 1018.3
20260903034212 74 170 2.0 2.0 0.00 2.59 2.59 99 1018.2
20260903033707 74 227 2.0 5.0 0.00 2.59 2.59 99 1018.2
20260903033202 74 203 2.0 3.0 0.00 2.59 2.59 99 1018.2
20260903032657 74 159 2.0 2.0 0.00 2.59 2.59 99 1018.3
20260903032152 74 138 4.0 7.0 0.00 2.59 2.59 99 1018.1
20260903031647 74 171 3.0 3.0 0.00 2.59 2.59 99 1018.3
20260903031142 74 173 1.0 2.0 0.00 2.59 2.59 99 1018.1
20260903030638 74 170 2.0 3.0 0.00 2.59 2.59 99 1018.3
20260903030133 74 131 3.0 3.0 0.00 2.59 2.59 99 1018.1
20260903025628 74 146 4.0 6.0 0.00 2.59 2.59 99 1018.2
20260903025124 73 205 3.0 3.0 0.00 2.59 2.59 99 1017.9
20260903024618 73 149 3.0 3.0 0.00 2.59 2.59 99 1017.8
20260903024112 73 201 5.0 6.0 0.00 2.59 2.59 99 1017.7
20260903023609 74 138 4.0 5.0 0.00 2.59 2.59 99 1017.8
20260903023103 74 123 4.0 5.0 0.00 2.59 2.59 99 1017.6
20260903022603 74 141 3.0 3.0 0.00 2.59 2.59 99 1017.7
20260903022056 74 118 3.0 3.0 0.00 2.59 2.59 99 1017.3
20260903021551 74 173 3.0 6.0 0.00 2.59 2.59 99 1017.5
20260903021051 75 199 2.0 5.0 0.00 2.59 2.59 99 1017.4
20260903020546 75 178 2.0 2.0 0.05 2.59 2.59 99 1017.3
20260903020041 75 166 5.0 6.0 0.05 2.59 2.59 99 1017.2
20260903015537 75 160 1.0 2.0 0.05 2.59 2.59 99 1017.3
20260903015032 74 168 1.0 1.0 0.12 2.58 2.58 99 1017.2
20260903014531 74 173 2.0 3.0 0.42 2.58 2.58 99 1017.2
20260903014026 74 154 1.0 1.0 0.40 2.57 2.57 99 1017.3
20260903013526 74 176 1.0 1.0 0.05 2.51 2.51 99 1017.6
20260903013020 74 96 1.0 1.0 0.00 2.50 2.50 99 1017.9
20260903012520 74 171 0.0 0.0 0.00 2.50 2.50 99 1017.7
20260903012019 74 246 2.0 2.0 0.00 2.50 2.50 99 1017.7
20260903011513 74 171 0.0 1.0 0.00 2.50 2.50 99 1017.3
20260903011008 74 178 3.0 3.0 0.00 2.50 2.50 99 1017.2
20260903010504 73 126 6.0 9.0 0.00 2.50 2.50 99 1016.7
20260903010002 73 121 4.0 7.0 0.00 2.50 2.50 99 1016.4
20260903005456 73 102 2.0 2.0 0.00 2.50 2.50 99 1016.6
20260903004952 74 130 4.0 6.0 0.00 2.50 2.50 99 1016.5
20260903004447 73 151 7.0 10.0 0.00 2.50 2.50 99 1017.0
20260903003943 73 196 1.0 2.0 0.00 2.50 2.50 99 1017.0
20260903003443 73 114 3.0 3.0 0.00 2.50 2.50 99 1017.1
20260903002938 73 155 1.0 2.0 0.00 2.50 2.50 99 1017.0
20260903002433 73 153 2.0 5.0 0.00 2.50 2.50 99 1017.2
20260903001932 73 228 1.0 2.0 0.00 2.50 2.50 99 1017.4
20260903001426 73 137 4.0 5.0 0.00 2.50 2.50 99 1017.3
20260903000926 73 98 2.0 2.0 0.00 2.50 2.50 99 1016.8
20260903000421 73 81 5.0 6.0 0.07 2.50 2.50 99 1016.7
20260902235920 73 69 4.0 6.0 0.14 2.50 2.50 99 1017.0
20260902235415 74 162 2.0 2.0 0.54 2.49 2.49 99 1017.3
20260902234915 74 165 3.0 3.0 1.02 2.48 2.48 99 1017.4
20260902234409 75 72 1.0 2.0 0.90 2.44 2.44 99 1017.7
20260902233909 75 168 0.0 0.0 0.24 2.33 2.33 99 1017.6
20260902233403 75 184 0.0 0.0 0.17 2.29 2.29 99 1017.2
20260902232901 75 119 1.0 2.0 0.24 2.29 2.29 99 1017.2
20260902232357 75 107 6.0 8.0 0.24 2.27 2.27 99 1017.2
20260902231850 75 145 2.0 2.0 0.38 2.24 2.24 99 1017.1
20260902231345 75 105 3.0 3.0 0.47 2.23 2.23 99 1016.8
20260902230840 75 165 1.0 1.0 0.47 2.20 2.20 99 1017.2
20260902230340 74 229 1.0 1.0 0.28 2.16 2.16 99 1016.9
20260902225834 74 172 0.0 0.0 0.12 2.12 2.12 99 1017.1
20260902225330 74 151 1.0 2.0 0.19 2.11 2.11 99 1017.2
20260902224828 74 176 0.0 0.0 0.19 2.10 2.10 99 1016.9
20260902224323 74 85 1.0 2.0 0.17 2.09 2.09 99 1016.7
20260902223820 74 237 1.0 1.0 0.40 2.07 2.07 99 1016.8
20260902223319 74 165 1.0 2.0 0.54 2.06 2.06 99 1016.6
20260902222813 74 173 1.0 1.0 0.85 2.00 2.00 99 1016.7
20260902222306 73 329 4.0 6.0 0.66 1.97 1.97 99 1016.6
20260902213359 75 142 2.0 2.0 2.03 2.88 2.88 99 1018.0
20260902212857 75 142 2.0 2.0 2.03 2.88 2.88 99 1018.0
20260902212354 75 142 2.0 2.0 2.03 2.88 2.88 99 1018.0
20260902211850 75 336 4.0 6.0 1.68 2.65 2.65 99 1017.0
20260902211346 75 159 9.0 11.0 2.88 2.51 2.51 99 1015.8
20260902210841 75 148 8.0 10.0 3.12 2.34 2.34 99 1016.3
20260902210340 75 152 5.0 6.0 1.09 1.94 1.94 99 1017.2
20260902205839 75 218 1.0 1.0 1.51 1.81 1.81 99 1016.4
20260902205328 74 90 3.0 5.0 1.25 1.77 1.77 99 1016.5
20260902204824 74 26 7.0 8.0 4.32 2.40 2.40 99 1016.1
20260902204318 74 274 8.0 13.0 2.27 1.97 1.97 98 1017.4
20260902203814 74 312 5.0 6.0 0.90 1.67 1.67 97 1017.6
20260902203309 75 16 5.0 7.0 0.59 1.58 1.58 97 1017.6
20260902202808 75 170 0.0 0.0 0.31 1.51 1.51 97 1017.7
20260902202306 75 139 2.0 2.0 0.24 1.48 1.48 96 1017.6
20260902201801 76 201 4.0 5.0 0.24 1.46 1.46 94 1017.5
20260902201301 77 100 2.0 2.0 0.24 1.44 1.44 91 1017.5
20260902200756 81 316 7.0 9.0 0.12 1.42 1.42 87 1017.5
20260902200251 86 321 6.0 9.0 0.00 1.40 1.40 80 1018.0
20260902195746 87 269 3.0 5.0 0.00 1.40 1.40 83 1016.7
20260902195245 87 120 2.0 5.0 0.00 1.40 1.40 82 1016.5
20260902194740 87 194 4.0 7.0 0.00 1.40 1.40 82 1016.5
20260902194235 87 165 6.0 6.0 0.00 1.40 1.40 82 1016.3
20260902193731 87 110 2.0 5.0 0.00 1.40 1.40 82 1016.4
20260902193226 87 194 0.0 1.0 0.00 1.40 1.40 84 1016.6
20260902192725 87 163 3.0 5.0 0.00 1.40 1.40 84 1016.7
20260902192224 87 166 2.0 3.0 0.00 1.40 1.40 84 1016.9
20260902191718 87 186 1.0 2.0 0.00 1.40 1.40 85 1016.9
20260902191213 87 175 0.0 1.0 0.00 1.40 1.40 85 1016.9
20260902190709 86 180 2.0 2.0 0.00 1.40 1.40 85 1017.1
20260902190208 87 204 2.0 2.0 0.00 1.40 1.40 84 1017.2
20260902185704 87 141 3.0 3.0 0.00 1.40 1.40 85 1017.3
20260902185200 87 209 3.0 3.0 0.00 1.40 1.40 85 1017.2
20260902184655 87 181 1.0 2.0 0.00 1.40 1.40 85 1017.6
20260902184150 87 129 2.0 2.0 0.00 1.40 1.40 84 1017.4
20260902183646 86 177 0.0 0.0 0.00 1.40 1.40 87 1017.5
20260902183143 86 174 0.0 0.0 0.00 1.40 1.40 87 1017.3
20260902182638 85 188 4.0 5.0 0.00 1.40 1.40 86 1017.5
20260902182135 85 210 2.0 2.0 0.00 1.40 1.40 88 1017.6
20260902181631 84 135 2.0 3.0 0.00 1.40 1.40 90 1017.6
20260902181130 84 163 1.0 1.0 0.00 1.40 1.40 92 1017.8
20260902180624 84 155 1.0 2.0 0.00 1.40 1.40 94 1017.7
20260902180120 83 179 1.0 2.0 0.00 1.40 1.40 95 1017.9
20260902175615 82 190 3.0 5.0 0.00 1.40 1.40 96 1018.1
20260902175110 82 156 1.0 2.0 0.00 1.40 1.40 98 1018.1
20260902174607 81 182 1.0 1.0 0.00 1.40 1.40 99 1018.1
20260902174102 81 160 1.0 1.0 0.00 1.40 1.40 99 1018.2
20260902173601 80 164 3.0 3.0 0.00 1.40 1.40 99 1018.2
20260902173057 80 174 1.0 1.0 0.00 1.40 1.40 99 1018.2
20260902172550 80 152 3.0 3.0 0.00 1.40 1.40 99 1018.1
20260902172045 79 155 1.0 1.0 0.00 1.40 1.40 99 1018.2
20260902171536 79 171 2.0 3.0 0.00 1.40 1.40 99 1018.4
20260902171031 79 207 3.0 3.0 0.00 1.40 1.40 99 1018.5
20260902170526 78 66 0.0 1.0 0.00 1.40 1.40 99 1018.6
20260902170022 78 172 2.0 2.0 0.00 1.40 1.40 99 1018.6
20260902165521 77 122 4.0 5.0 0.00 1.40 1.40 99 1018.7
20260902165016 77 150 3.0 3.0 0.00 1.40 1.40 99 1019.0
20260902164511 77 153 4.0 6.0 0.00 1.40 1.40 99 1019.0
20260902164010 77 63 2.0 2.0 0.00 1.40 1.40 99 1018.9
20260902163506 76 162 2.0 3.0 0.00 1.40 1.40 99 1019.0
20260902163004 76 169 1.0 2.0 0.00 1.40 1.40 99 1019.4
20260902162458 75 153 2.0 2.0 0.00 1.40 1.40 99 1018.9
20260902161953 75 136 2.0 3.0 0.00 1.40 1.40 99 1019.1
20260902161448 77 159 3.0 6.0 0.00 1.40 1.40 99 1018.9
20260902160944 77 133 5.0 9.0 0.00 1.40 1.40 99 1019.2
20260902160439 77 220 7.0 10.0 0.00 1.40 1.40 99 1018.9
20260902155936 77 209 4.0 6.0 0.00 1.40 1.40 99 1018.7
20260902155433 77 229 5.0 6.0 0.00 1.40 1.40 99 1018.8
20260902154926 77 170 2.0 2.0 0.00 1.40 1.40 99 1018.8
20260902154422 77 184 3.0 3.0 0.00 1.40 1.40 99 1018.7
20260902153922 77 204 3.0 3.0 0.00 1.40 1.40 99 1018.6
20260902153420 77 193 0.0 1.0 0.00 1.40 1.40 99 1018.4
20260902152916 77 179 1.0 2.0 0.00 1.40 1.40 99 1018.5
20260902152412 77 136 2.0 3.0 0.00 1.40 1.40 99 1018.6
20260902151908 76 166 1.0 1.0 0.00 1.40 1.40 99 1018.5
20260902151403 76 187 2.0 5.0 0.00 1.40 1.40 99 1018.6
20260902150902 76 182 1.0 2.0 0.00 1.40 1.40 99 1018.2
20260902150359 76 175 1.0 2.0 0.00 1.40 1.40 99 1018.4
20260902145858 75 170 2.0 3.0 0.07 1.40 1.40 99 1018.5
20260902145354 75 177 0.0 1.0 0.07 1.40 1.40 99 1018.2
20260902144849 75 180 3.0 3.0 0.00 1.39 1.39 99 1018.4
20260902144345 75 185 0.0 0.0 0.00 1.39 1.39 99 1018.3
20260902143839 75 174 2.0 3.0 0.00 1.39 1.39 99 1018.4
20260902143333 75 182 1.0 2.0 0.00 1.39 1.39 99 1018.2
20260902142830 75 187 3.0 5.0 0.00 1.39 1.39 99 1018.4
20260902142325 75 83 3.0 3.0 0.00 1.39 1.39 99 1018.4
20260902141820 75 196 3.0 5.0 0.05 1.39 1.39 99 1018.3
20260902141316 75 344 1.0 2.0 0.05 1.39 1.39 99 1018.1
20260902140815 75 155 3.0 3.0 0.00 1.38 1.38 99 1018.1
20260902140310 75 159 3.0 6.0 0.07 1.38 1.38 99 1018.1
20260902135809 75 154 2.0 3.0 0.14 1.38 1.38 99 1018.0
20260902135307 75 208 2.0 2.0 0.12 1.37 1.37 99 1018.0
20260902134805 75 187 2.0 2.0 0.12 1.36 1.36 99 1018.0
20260902134301 74 162 0.0 1.0 0.07 1.35 1.35 99 1017.9
20260902133756 74 179 2.0 2.0 0.05 1.34 1.34 99 1018.0
20260902133255 75 173 1.0 1.0 0.05 1.34 1.34 99 1017.8
20260902132750 75 176 0.0 1.0 0.07 1.33 1.33 99 1018.0
20260902132246 75 181 1.0 2.0 0.24 1.33 1.33 99 1017.9
20260902131741 75 185 3.0 3.0 0.38 1.31 1.31 99 1017.7
20260902131238 75 178 1.0 1.0 0.35 1.28 1.28 99 1017.5
20260902130737 75 165 1.0 1.0 0.31 1.26 1.26 99 1017.6
20260902130233 75 175 0.0 1.0 0.19 1.22 1.22 99 1017.5
20260902125728 75 157 1.0 2.0 0.12 1.21 1.21 99 1017.3
20260902125224 75 173 3.0 3.0 0.00 1.19 1.19 99 1017.4
20260902124721 75 185 2.0 2.0 0.00 1.19 1.19 99 1017.1
20260902124216 75 206 1.0 2.0 0.00 1.19 1.19 99 1017.2
20260902123711 75 176 1.0 1.0 0.00 1.19 1.19 99 1017.0
20260902123207 75 145 1.0 1.0 0.00 1.19 1.19 99 1017.1
20260902122705 75 188 1.0 1.0 0.00 1.19 1.19 99 1016.8
20260902122202 75 148 2.0 2.0 0.00 1.19 1.19 99 1016.7
20260902121656 75 205 1.0 1.0 0.00 1.19 1.19 99 1016.6
20260902121150 75 178 1.0 2.0 0.00 1.19 1.19 99 1016.5
20260902120647 75 146 3.0 3.0 0.00 1.19 1.19 99 1016.4
20260902120143 75 252 1.0 1.0 0.00 1.19 1.19 99 1016.3
20260902115637 75 176 1.0 2.0 0.05 1.19 1.19 99 1016.4
20260902115133 75 215 1.0 1.0 0.05 1.19 1.19 99 1016.1
20260902114629 75 152 1.0 1.0 0.05 1.19 1.19 99 1016.2
20260902114129 75 180 0.0 1.0 0.00 1.18 1.18 99 1016.3
20260902113624 75 161 2.0 2.0 0.07 1.18 1.18 99 1016.1
20260902113119 75 189 3.0 5.0 0.12 1.18 1.18 99 1015.8
20260902112609 75 87 2.0 2.0 0.05 1.17 1.17 99 1016.1
20260902112106 75 118 1.0 1.0 0.07 1.16 1.16 99 1015.8
20260902111602 75 194 2.0 3.0 0.07 1.16 1.16 99 1015.6
20260902111057 75 179 2.0 3.0 0.05 1.15 1.15 99 1015.8
20260902110553 75 149 1.0 2.0 0.19 1.15 1.15 99 1015.8
20260902110048 75 199 2.0 2.0 0.38 1.14 1.14 99 1015.5
20260902105543 75 166 4.0 6.0 0.47 1.11 1.11 99 1015.3
20260902105043 75 176 5.0 7.0 0.71 1.08 1.08 99 1015.5
20260902104539 75 309 4.0 5.0 1.09 1.03 1.03 99 1015.4
20260902104038 75 162 3.0 3.0 1.25 0.98 0.98 99 1015.2
20260902103534 75 166 3.0 5.0 1.18 0.84 0.84 99 1015.0
20260902103029 75 67 1.0 2.0 1.13 0.76 0.76 99 1015.2
20260902102526 75 213 3.0 3.0 0.78 0.66 0.66 99 1015.0
20260902102022 75 179 2.0 3.0 0.35 0.57 0.57 99 1015.0
20260902101517 75 118 4.0 6.0 0.19 0.53 0.53 99 1015.2
20260902101016 74 216 2.0 5.0 0.14 0.51 0.51 99 1014.8
20260902100511 74 112 3.0 5.0 0.07 0.50 0.50 99 1014.5
20260902100006 74 178 4.0 5.0 0.00 0.49 0.49 99 1014.3
20260902095506 74 123 3.0 5.0 0.05 0.49 0.49 99 1014.1
20260902095005 74 163 6.0 8.0 0.05 0.49 0.49 99 1014.0
20260902094501 74 21 5.0 7.0 0.00 0.48 0.48 99 1014.4
20260902094001 74 241 7.0 9.0 0.07 0.48 0.48 99 1014.2
20260902093456 74 148 2.0 3.0 0.12 0.48 0.48 99 1014.0
20260902092955 74 193 5.0 6.0 0.17 0.47 0.47 99 1014.2
20260902092451 74 46 2.0 2.0 0.24 0.46 0.46 99 1014.1
20260902091951 74 152 3.0 5.0 0.24 0.45 0.45 99 1013.9
20260902091446 74 295 6.0 7.0 0.17 0.43 0.43 99 1013.9
20260902090943 74 209 7.0 13.0 0.17 0.41 0.41 99 1013.9
20260902090438 75 310 6.0 8.0 0.19 0.40 0.40 99 1013.8
20260902085936 75 230 3.0 5.0 0.07 0.38 0.38 99 1013.6
20260902085432 75 150 5.0 8.0 0.07 0.37 0.37 99 1013.7
20260902084927 75 209 5.0 8.0 0.12 0.37 0.37 99 1013.9
20260902084423 75 162 5.0 6.0 0.17 0.36 0.36 99 1013.7